GW6637 Weather Reports


time (UTC)temp
F
wind
direction
speed
knots
gust
knots
rain 1hr
in
rain 24hr
in
rain mn
in
humidity
%
barometer
mb
20260510192655 81 148 0.9 0.9 0.00 0.00 0.00 30 1014.7
20260510192150 82 73 0.9 1.7 0.00 0.00 0.00 31 1014.7
20260510191647 81 272 2.6 3.5 0.00 0.00 0.00 32 1014.8
20260510191143 82 24 2.6 3.5 0.00 0.00 0.00 31 1014.9
20260510190641 81 346 2.6 3.5 0.00 0.00 0.00 33 1014.8
20260510190138 80 161 0.9 0.9 0.00 0.00 0.00 33 1014.9
20260510185634 82 322 3.5 3.5 0.00 0.00 0.00 30 1015.0
20260510185132 80 288 1.7 1.7 0.00 0.00 0.00 34 1015.0
20260510184629 80 78 1.7 2.6 0.00 0.00 0.00 32 1014.8
20260510184125 81 86 0.9 0.9 0.00 0.00 0.00 34 1014.9
20260510183620 80 79 0.9 0.9 0.00 0.00 0.00 35 1015.0
20260510183116 80 24 1.7 1.7 0.00 0.00 0.00 34 1015.0
20260510182613 80 72 0.9 0.9 0.00 0.00 0.00 33 1015.1
20260510182108 82 263 2.6 2.6 0.00 0.00 0.00 33 1015.1
20260510181606 83 165 0.9 0.9 0.00 0.00 0.00 35 1015.0
20260510181102 83 128 1.7 1.7 0.00 0.00 0.00 34 1014.9
20260510180558 82 271 1.7 2.6 0.00 0.00 0.00 32 1015.2
20260510180056 82 275 4.3 6.1 0.00 0.00 0.00 32 1015.2
20260510175557 81 263 2.6 5.2 0.00 0.00 0.00 33 1015.3
20260510175052 81 249 1.7 2.6 0.00 0.00 0.00 33 1015.4
20260510174551 81 343 2.6 3.5 0.00 0.00 0.00 34 1015.3
20260510174048 82 6 0.9 1.7 0.00 0.00 0.00 34 1015.5
20260510173543 81 290 2.6 2.6 0.00 0.00 0.00 35 1015.4
20260510173040 80 196 1.7 1.7 0.00 0.00 0.00 36 1015.5
20260510172536 79 193 0.9 1.7 0.00 0.00 0.00 35 1015.6
20260510172032 80 196 3.5 3.5 0.00 0.00 0.00 33 1015.5
20260510171529 79 185 1.7 1.7 0.00 0.00 0.00 35 1015.6
20260510171026 79 287 1.7 1.7 0.00 0.00 0.00 34 1015.8
20260510170523 79 206 0.9 0.9 0.00 0.00 0.00 35 1015.7
20260510170020 81 193 2.6 2.6 0.00 0.00 0.00 35 1015.9
20260510165515 80 156 0.9 0.9 0.00 0.00 0.00 35 1015.6
20260510165012 79 139 0.9 0.9 0.00 0.00 0.00 36 1015.6
20260510164509 79 282 0.9 1.7 0.00 0.00 0.00 37 1015.6
20260510164004 80 261 2.6 2.6 0.00 0.00 0.00 38 1015.6
20260510163500 80 302 2.6 3.5 0.00 0.00 0.00 37 1015.7
20260510162955 80 210 1.7 2.6 0.00 0.00 0.00 38 1015.7
20260510162452 79 152 1.7 2.6 0.00 0.00 0.00 37 1015.8
20260510161949 79 192 2.6 3.5 0.00 0.00 0.00 38 1015.7
20260510161444 78 199 3.5 3.5 0.00 0.00 0.00 39 1015.8
20260510160942 78 151 2.6 3.5 0.00 0.00 0.00 40 1016.0
20260510160439 78 193 1.7 2.6 0.00 0.00 0.00 40 1016.0
20260510155937 77 310 3.5 3.5 0.00 0.00 0.00 41 1016.0
20260510155434 77 217 6.1 8.7 0.00 0.00 0.00 40 1016.1
20260510154931 77 207 3.5 3.5 0.00 0.00 0.00 41 1016.1
20260510154427 77 240 2.6 3.5 0.00 0.00 0.00 42 1016.1
20260510153925 77 279 3.5 5.2 0.00 0.00 0.00 41 1016.0
20260510153423 76 210 4.3 6.1 0.00 0.00 0.00 41 1016.1
20260510152919 76 228 3.5 5.2 0.00 0.00 0.00 41 1016.4
20260510152417 77 196 1.7 2.6 0.00 0.00 0.00 42 1016.5
20260510151913 76 298 3.5 3.5 0.00 0.00 0.00 43 1016.3
20260510151411 75 173 2.6 2.6 0.00 0.00 0.00 44 1016.1
20260510150907 75 229 3.5 3.5 0.00 0.00 0.00 43 1016.3
20260510150402 74 199 5.2 6.1 0.00 0.00 0.00 44 1016.5
20260510145858 74 232 2.6 2.6 0.00 0.00 0.00 45 1016.5
20260510145355 74 251 2.6 2.6 0.00 0.00 0.00 45 1016.3
20260510144852 74 279 5.2 7.0 0.00 0.00 0.00 45 1016.4
20260510144348 73 268 4.3 6.1 0.00 0.00 0.00 46 1016.4
20260510143843 73 281 5.2 8.7 0.00 0.00 0.00 46 1016.3
20260510143339 73 166 2.6 3.5 0.00 0.00 0.00 47 1016.3
20260510142837 72 315 5.2 6.1 0.00 0.00 0.00 48 1016.5
20260510142333 72 252 3.5 3.5 0.00 0.00 0.00 48 1016.5
20260510141830 71 206 1.7 1.7 0.00 0.00 0.00 49 1016.4
20260510141327 71 7 3.5 3.5 0.00 0.00 0.00 50 1016.4
20260510140825 70 214 1.7 1.7 0.00 0.00 0.00 51 1016.5
20260510140320 70 269 2.6 2.6 0.00 0.00 0.00 54 1016.4
20260510135819 69 162 0.0 0.9 0.00 0.00 0.00 52 1016.9
20260510135315 69 138 2.6 3.5 0.00 0.00 0.00 53 1016.7
20260510134813 69 150 0.0 0.9 0.00 0.00 0.00 54 1016.7
20260510134310 69 192 1.7 2.6 0.00 0.00 0.00 55 1016.6
20260510133806 69 194 2.6 3.5 0.00 0.00 0.00 54 1016.6
20260510133302 68 188 1.7 2.6 0.00 0.00 0.00 55 1016.7
20260510132757 67 281 0.9 1.7 0.00 0.00 0.00 56 1016.6
20260510132256 67 305 3.5 5.2 0.00 0.00 0.00 55 1016.6
20260510131752 67 283 2.6 3.5 0.00 0.00 0.00 57 1016.6
20260510131250 67 278 1.7 2.6 0.00 0.00 0.00 57 1016.7
20260510130746 66 252 0.9 1.7 0.00 0.00 0.00 58 1016.5
20260510130243 66 231 2.6 2.6 0.00 0.00 0.00 59 1016.4
20260510125740 65 225 1.7 3.5 0.00 0.00 0.00 60 1016.5
20260510125236 64 275 2.6 3.5 0.00 0.00 0.00 61 1016.6
20260510124732 64 209 2.6 3.5 0.00 0.00 0.00 62 1016.5
20260510124231 63 281 1.7 3.5 0.00 0.00 0.00 64 1016.5
20260510123725 62 310 5.2 7.0 0.00 0.00 0.00 65 1016.5
20260510123221 62 283 1.7 1.7 0.00 0.00 0.00 66 1016.4
20260510122718 62 274 1.7 2.6 0.00 0.00 0.00 67 1016.1
20260510122215 61 234 0.9 1.7 0.00 0.00 0.00 69 1016.4
20260510121711 60 275 0.9 0.9 0.00 0.00 0.00 70 1016.4
20260510121209 60 261 3.5 5.2 0.00 0.00 0.00 70 1016.4
20260510120705 60 280 0.9 0.9 0.00 0.00 0.00 72 1016.1
20260510120202 59 165 0.0 0.0 0.00 0.00 0.00 73 1016.3
20260510115657 58 269 3.5 3.5 0.00 0.00 0.00 74 1016.5
20260510115156 57 283 0.9 1.7 0.00 0.00 0.00 75 1016.2
20260510114651 57 273 1.7 1.7 0.00 0.00 0.00 76 1016.2
20260510114148 57 276 3.5 3.5 0.00 0.00 0.00 77 1016.1
20260510113643 56 285 2.6 2.6 0.00 0.00 0.00 78 1016.1
20260510113140 55 309 0.9 0.9 0.00 0.00 0.00 79 1016.1
20260510112637 55 273 2.6 3.5 0.00 0.00 0.00 81 1015.9
20260510112134 54 296 1.7 2.6 0.00 0.00 0.00 81 1015.7
20260510111630 54 267 0.9 0.9 0.00 0.00 0.00 82 1015.8
20260510111126 53 298 0.9 0.9 0.00 0.00 0.00 83 1015.8
20260510110622 53 266 2.6 2.6 0.00 0.00 0.00 85 1015.6
20260510110119 52 348 0.9 0.9 0.00 0.00 0.00 86 1015.5
20260510105615 52 36 0.0 0.9 0.00 0.00 0.00 87 1015.3
20260510105109 51 39 0.0 0.9 0.00 0.00 0.00 89 1015.2
20260510104606 50 351 0.9 1.7 0.00 0.00 0.00 92 1015.2
20260510104103 49 56 0.9 0.9 0.00 0.00 0.00 91 1015.0
20260510103600 49 56 0.9 0.9 0.00 0.00 0.00 90 1015.2
20260510103055 49 56 0.0 0.0 0.00 0.00 0.00 90 1015.1
20260510102551 50 56 0.0 0.0 0.00 0.00 0.00 89 1015.1
20260510102047 50 54 0.0 0.9 0.00 0.00 0.00 89 1015.0
20260510101545 51 54 0.0 0.0 0.00 0.00 0.00 89 1014.9
20260510101044 50 53 0.0 0.0 0.00 0.00 0.00 91 1015.0
20260510100539 49 62 0.9 0.9 0.00 0.00 0.00 92 1014.7
20260510100037 49 50 0.0 0.9 0.00 0.00 0.00 94 1014.8
20260510095533 48 79 0.0 0.9 0.00 0.00 0.00 94 1014.9
20260510095032 47 82 0.0 0.9 0.00 0.00 0.00 94 1014.7
20260510094527 47 82 0.0 0.0 0.00 0.00 0.00 94 1014.7
20260510094022 47 82 0.0 0.0 0.00 0.00 0.00 94 1014.6
20260510093518 47 82 0.0 0.0 0.00 0.00 0.00 94 1014.7
20260510093015 47 83 0.0 0.0 0.00 0.00 0.00 94 1014.4
20260510092513 47 82 0.9 0.9 0.00 0.00 0.00 94 1014.5
20260510092012 47 81 0.0 0.0 0.00 0.00 0.00 94 1014.4
20260510091509 47 81 0.0 0.0 0.00 0.00 0.00 93 1014.4
20260510091005 47 98 0.9 0.9 0.00 0.00 0.00 94 1014.3
20260510090503 47 96 0.0 0.0 0.00 0.00 0.00 93 1014.4
20260510085957 47 96 0.0 0.0 0.00 0.00 0.00 93 1014.4
20260510085453 47 96 0.0 0.0 0.00 0.00 0.00 93 1014.2
20260510084948 47 96 0.0 0.0 0.00 0.00 0.00 93 1014.4
20260510084446 47 96 0.0 0.0 0.00 0.00 0.00 93 1014.4
20260510083942 47 96 0.0 0.0 0.00 0.00 0.00 93 1014.2
20260510083439 47 96 0.0 0.0 0.00 0.00 0.00 93 1014.4
20260510082934 47 96 0.0 0.0 0.00 0.00 0.00 93 1014.3
20260510082433 47 96 0.0 0.0 0.00 0.00 0.00 93 1014.5
20260510081931 47 96 0.0 0.0 0.00 0.00 0.00 92 1014.2
20260510081427 47 96 0.0 0.0 0.00 0.00 0.00 93 1014.3
20260510080924 47 96 0.0 0.0 0.00 0.00 0.00 93 1014.1
20260510080423 47 96 0.0 0.0 0.00 0.00 0.00 92 1014.1
20260510075920 47 97 0.0 0.0 0.00 0.00 0.00 92 1013.8
20260510075418 47 96 0.0 0.0 0.00 0.00 0.00 92 1013.8
20260510074914 47 97 0.0 0.0 0.00 0.00 0.00 92 1013.9
20260510074411 47 97 0.0 0.0 0.00 0.00 0.00 92 1013.8
20260510073908 48 96 0.0 0.0 0.00 0.00 0.00 92 1013.9
20260510073403 48 96 0.0 0.0 0.00 0.00 0.00 91 1013.7
20260510072900 48 96 0.0 0.0 0.00 0.00 0.00 92 1013.6
20260510072357 48 96 0.0 0.0 0.00 0.00 0.00 91 1013.8
20260510071852 48 96 0.0 0.0 0.00 0.00 0.00 91 1013.6
20260510071349 48 96 0.0 0.0 0.00 0.00 0.00 91 1013.7
20260510070848 48 96 0.0 0.0 0.00 0.00 0.00 90 1013.6
20260510070344 48 96 0.0 0.0 0.00 0.00 0.00 91 1013.7
20260510065844 48 96 0.0 0.0 0.00 0.00 0.00 90 1013.7
20260510065341 48 96 0.0 0.0 0.00 0.00 0.00 90 1013.5
20260510064838 49 96 0.0 0.0 0.00 0.00 0.00 90 1013.5
20260510064336 49 96 0.0 0.0 0.00 0.00 0.00 89 1013.6
20260510063832 49 96 0.0 0.0 0.00 0.00 0.00 89 1013.7
20260510063329 49 97 0.0 0.0 0.00 0.00 0.00 88 1013.6
20260510062825 49 96 0.0 0.0 0.00 0.00 0.00 88 1013.7
20260510062321 49 96 0.0 0.9 0.00 0.00 0.00 88 1013.6
20260510061816 50 96 0.0 0.0 0.00 0.00 0.00 88 1013.8
20260510061313 50 96 0.0 0.0 0.00 0.00 0.00 87 1013.6
20260510060809 50 96 0.0 0.0 0.00 0.00 0.00 87 1013.8
20260510060307 50 97 0.0 0.0 0.00 0.00 0.00 87 1013.8
20260510055803 50 96 0.0 0.0 0.00 0.00 0.00 87 1013.7
20260510055301 50 96 0.0 0.0 0.00 0.00 0.00 86 1013.7
20260510054801 50 96 0.0 0.0 0.00 0.00 0.00 86 1014.0
20260510054258 50 96 0.0 0.0 0.00 0.00 0.00 86 1013.9
20260510053758 51 96 0.0 0.0 0.00 0.00 0.00 85 1013.7
20260510053253 51 96 0.0 0.0 0.00 0.00 0.00 85 1013.8
20260510052750 51 96 0.0 0.0 0.00 0.00 0.00 84 1013.7
20260510052246 51 96 0.0 0.0 0.00 0.00 0.00 84 1014.0
20260510051742 51 96 0.0 0.0 0.00 0.00 0.00 84 1013.8
20260510051239 51 96 0.0 0.0 0.00 0.00 0.00 83 1013.9
20260510050736 52 96 0.0 0.0 0.00 0.00 0.00 83 1013.7
20260510050233 52 96 0.0 0.9 0.00 0.00 0.00 83 1013.7
20260510045730 51 96 0.0 0.0 0.00 0.00 0.00 82 1013.8
20260510045226 52 96 0.0 0.0 0.00 0.00 0.00 81 1013.7
20260510044722 52 96 0.0 0.0 0.00 0.00 0.00 81 1013.6
20260510044221 52 96 0.0 0.0 0.00 0.00 0.00 81 1013.5
20260510043715 52 96 0.0 0.0 0.00 0.00 0.00 80 1013.5
20260510043213 52 96 0.0 0.0 0.00 0.00 0.00 80 1013.7
20260510042709 53 96 0.0 0.0 0.00 0.00 0.00 80 1013.7
20260510042206 53 96 0.0 0.0 0.00 0.00 0.00 80 1013.8
20260510041703 53 96 0.0 0.0 0.00 0.00 0.00 79 1013.8
20260510041200 53 96 0.0 0.0 0.00 0.00 0.00 79 1013.6
20260510040657 53 97 0.0 0.0 0.00 0.00 0.00 78 1013.7
20260510040154 53 97 0.0 0.0 0.00 0.00 0.00 78 1013.5
20260510035649 54 96 0.0 0.0 0.00 0.00 0.00 77 1013.3
20260510035145 54 96 0.0 0.9 0.00 0.00 0.00 78 1013.6
20260510034641 54 97 0.0 0.9 0.00 0.00 0.00 76 1013.6
20260510034139 55 103 0.0 0.0 0.00 0.00 0.00 76 1013.6
20260510033635 55 104 0.0 0.0 0.00 0.00 0.00 75 1013.5
20260510033133 55 103 0.0 0.0 0.00 0.00 0.00 75 1013.3
20260510032629 55 103 0.0 0.0 0.00 0.00 0.00 74 1013.3
20260510032124 55 95 0.9 0.9 0.00 0.00 0.00 74 1013.2
20260510031620 55 94 0.0 0.0 0.00 0.00 0.00 73 1013.5
20260510031117 56 94 0.0 0.0 0.00 0.00 0.00 73 1013.0
20260510030611 56 94 0.0 0.0 0.00 0.00 0.00 71 1013.2
20260510030109 56 125 0.0 0.0 0.00 0.00 0.00 70 1013.1
20260510025606 56 125 0.0 0.0 0.00 0.00 0.00 70 1013.0
20260510025103 56 126 0.9 0.9 0.00 0.00 0.00 71 1013.1
20260510024600 56 95 0.0 0.0 0.00 0.00 0.00 71 1012.9
20260510024056 56 69 0.0 0.0 0.00 0.00 0.00 71 1012.8
20260510023553 56 69 0.0 0.0 0.00 0.00 0.00 71 1013.0
20260510023050 56 69 0.0 0.0 0.00 0.00 0.00 71 1012.9
20260510022550 57 69 0.0 0.0 0.00 0.00 0.00 70 1013.0
20260510022050 57 69 0.0 0.0 0.00 0.00 0.00 70 1012.8
20260510021546 57 69 0.0 0.0 0.00 0.00 0.00 70 1012.9
20260510021044 57 69 0.0 0.0 0.00 0.00 0.00 69 1012.6
20260510020538 57 69 0.0 0.0 0.00 0.00 0.00 69 1012.7
20260510020034 58 69 0.0 0.0 0.00 0.00 0.00 68 1012.5
20260510015530 58 69 0.0 0.0 0.00 0.00 0.00 67 1012.4
20260510015026 58 69 0.0 0.0 0.00 0.00 0.00 66 1012.2
20260510014523 59 69 0.0 0.0 0.00 0.00 0.00 66 1012.6
20260510014020 59 69 0.0 0.0 0.00 0.00 0.00 66 1012.3
20260510013514 59 69 0.0 0.0 0.00 0.00 0.00 64 1012.0
20260510013010 60 69 0.0 0.0 0.00 0.00 0.00 63 1011.7
20260510012505 60 69 0.0 0.0 0.00 0.00 0.00 62 1011.8
20260510012000 61 69 0.0 0.0 0.00 0.00 0.00 61 1011.8
20260510011455 61 69 0.0 0.0 0.00 0.00 0.00 59 1011.6
20260510010951 62 69 0.0 0.0 0.00 0.00 0.00 58 1011.7
20260510010449 62 69 0.0 0.0 0.00 0.00 0.00 57 1011.5
20260510005945 62 69 0.0 0.0 0.00 0.00 0.00 56 1011.6
20260510005441 63 69 0.0 0.0 0.00 0.00 0.00 54 1011.5
20260510004939 64 69 0.0 0.0 0.00 0.00 0.00 54 1011.4
20260510004436 65 69 0.0 0.0 0.00 0.00 0.00 50 1011.3
20260510003934 66 69 0.0 0.9 0.00 0.00 0.00 48 1011.3
20260510003431 66 69 0.0 0.0 0.00 0.00 0.00 47 1011.4
20260510002930 67 69 0.0 0.0 0.00 0.00 0.00 45 1011.2
20260510002427 68 69 0.0 0.0 0.00 0.00 0.00 45 1011.2
20260510001923 68 69 0.0 0.0 0.00 0.00 0.00 43 1011.1
20260510001421 69 68 0.0 0.0 0.00 0.00 0.00 42 1011.0
20260510000919 69 70 0.0 0.0 0.00 0.00 0.00 42 1011.1
20260510000415 70 69 0.0 0.0 0.00 0.00 0.00 40 1010.8
20260509235911 71 84 0.0 0.0 0.00 0.00 0.00 39 1010.6
20260509235408 71 67 0.0 0.9 0.00 0.00 0.00 38 1010.7
20260509234904 71 139 0.0 0.9 0.00 0.00 0.00 38 1010.6
20260509234402 72 89 0.9 0.9 0.00 0.00 0.00 38 1010.5
20260509233859 72 201 0.9 0.9 0.00 0.00 0.00 36 1010.4
20260509233357 73 173 1.7 1.7 0.00 0.00 0.00 36 1010.3
20260509232852 73 173 0.9 1.7 0.00 0.00 0.00 35 1010.4
20260509232350 73 256 0.9 1.7 0.00 0.00 0.00 35 1010.4
20260509231846 73 185 1.7 1.7 0.00 0.00 0.00 35 1010.4
20260509231343 73 348 1.7 2.6 0.00 0.00 0.00 35 1010.3
20260509230841 74 300 2.6 2.6 0.00 0.00 0.00 35 1010.2
20260509230338 74 239 3.5 5.2 0.00 0.00 0.00 35 1010.2
20260509225833 75 278 2.6 2.6 0.00 0.00 0.00 36 1009.9
20260509225330 76 301 1.7 2.6 0.00 0.00 0.00 35 1009.8
20260509224826 76 180 0.9 1.7 0.00 0.00 0.00 34 1009.8
20260509224322 75 169 0.9 0.9 0.00 0.00 0.00 35 1010.0
20260509223819 74 270 1.7 1.7 0.00 0.00 0.00 36 1010.3
20260509223316 75 91 0.0 0.9 0.00 0.00 0.00 36 1010.0
20260509222813 76 348 2.6 3.5 0.00 0.00 0.00 34 1009.9
20260509222308 76 240 1.7 1.7 0.00 0.00 0.00 35 1009.9
20260509221804 75 54 0.9 0.9 0.00 0.00 0.00 35 1009.8
20260509221302 76 72 0.9 0.9 0.00 0.00 0.00 34 1010.2
20260509220756 77 211 0.9 0.9 0.00 0.00 0.00 34 1009.8
20260509220253 76 287 2.6 2.6 0.00 0.00 0.00 33 1009.9
20260509215748 75 305 3.5 3.5 0.00 0.00 0.00 35 1009.9
20260509215245 75 265 3.5 5.2 0.00 0.00 0.00 35 1009.9
20260509214742 75 164 1.7 1.7 0.00 0.00 0.00 35 1009.8
20260509214239 75 273 3.5 3.5 0.00 0.00 0.00 35 1009.8
20260509213736 76 269 1.7 2.6 0.00 0.00 0.00 35 1009.9
20260509213232 76 277 4.3 5.2 0.00 0.00 0.00 34 1009.5
20260509212730 76 234 1.7 2.6 0.00 0.00 0.00 35 1009.7
20260509212227 76 199 5.2 6.1 0.00 0.00 0.00 35 1009.3
20260509211722 76 177 2.6 2.6 0.00 0.00 0.00 35 1009.6
20260509211219 75 197 4.3 6.1 0.00 0.00 0.00 35 1009.5
20260509210715 75 216 1.7 1.7 0.00 0.00 0.00 34 1009.4
20260509210213 76 264 3.5 3.5 0.00 0.00 0.00 34 1009.3
20260509205713 76 287 4.3 5.2 0.00 0.00 0.00 34 1009.2
20260509205212 76 170 4.3 6.1 0.00 0.00 0.00 35 1009.3
20260509204709 76 168 2.6 3.5 0.00 0.00 0.00 34 1009.2
20260509204205 76 295 4.3 5.2 0.00 0.00 0.00 33 1009.3
20260509203701 76 189 3.5 3.5 0.00 0.00 0.00 33 1009.2
20260509203159 77 260 4.3 6.1 0.00 0.00 0.00 32 1009.1
20260509202655 77 213 7.8 12.2 0.00 0.00 0.00 32 1009.2
20260509202150 76 271 2.6 5.2 0.00 0.00 0.00 36 1009.3
20260509201645 75 296 5.2 7.0 0.00 0.00 0.00 34 1009.2
20260509201143 76 281 2.6 3.5 0.00 0.00 0.00 34 1009.2
20260509200638 76 203 4.3 7.8 0.00 0.00 0.00 32 1009.1
20260509200134 78 226 7.8 11.3 0.00 0.00 0.00 31 1009.4
20260509195630 77 190 1.7 1.7 0.00 0.00 0.00 34 1009.4
20260509195125 77 185 6.1 8.7 0.00 0.00 0.00 33 1009.3
20260509194625 77 272 1.7 1.7 0.00 0.00 0.00 35 1009.2
20260509194122 77 211 2.6 5.2 0.00 0.00 0.00 34 1009.3
20260509193618 78 221 6.1 8.7 0.00 0.00 0.00 32 1009.3
20260509193114 77 271 4.3 6.1 0.00 0.00 0.00 33 1009.4